DLH28M EPGD-ENGM

Flight info

Callsign DLH28M
Flight time 1h 13m
Altitude 38000
Route VAPOS N133 PENOR DCT KSD Z259 ESEBA
Aircraft A320/M-SDE3FGHIRWY/LB1

Departure

Time 2026-05-07 12:53
Airport Gdańsk Lech Wałęsa Airport (EPGD)

Arrival

Time 2026-05-07 14:07
Airport Oslo-Gardermoen International Airport (ENGM)
Time Latitude Longitude Altitude Speed Heading
2026-05-07 11:46 54.38131 18.46559 456 ft 0 kts 21°
2026-05-07 12:39 54.38128 18.46557 456 ft 3 kts 22°
2026-05-07 12:39 54.38106 18.46535 454 ft 4 kts 51°
2026-05-07 12:40 54.38096 18.46497 455 ft 4 kts 103°
2026-05-07 12:40 54.38099 18.46479 454 ft 1 kts 112°
2026-05-07 12:46 54.38088 18.46525 457 ft 4 kts 113°
2026-05-07 12:46 54.38078 18.46567 457 ft 5 kts 113°
2026-05-07 12:46 54.38007 18.46603 458 ft 16 kts 203°
2026-05-07 12:47 54.37926 18.46654 459 ft 13 kts 112°
2026-05-07 12:47 54.37896 18.46785 459 ft 11 kts 113°
2026-05-07 12:47 54.37855 18.46944 460 ft 19 kts 113°
2026-05-07 12:47 54.37805 18.47151 461 ft 19 kts 113°
2026-05-07 12:48 54.37753 18.47361 462 ft 20 kts 114°
2026-05-07 12:48 54.37697 18.47584 463 ft 21 kts 112°
2026-05-07 12:48 54.37642 18.47812 464 ft 21 kts 112°
2026-05-07 12:48 54.37583 18.48052 465 ft 22 kts 113°
2026-05-07 12:49 54.37521 18.48304 468 ft 23 kts 113°
2026-05-07 12:49 54.37457 18.48562 471 ft 23 kts 112°
2026-05-07 12:49 54.37398 18.48801 474 ft 21 kts 113°
2026-05-07 12:49 54.37344 18.49017 479 ft 19 kts 112°
2026-05-07 12:50 54.37304 18.49180 489 ft 12 kts 112°
2026-05-07 12:50 54.37263 18.49264 496 ft 7 kts 152°
2026-05-07 12:50 54.37226 18.49267 497 ft 5 kts 194°
2026-05-07 12:50 54.37219 18.49262 497 ft 1 kts 201°
2026-05-07 12:51 54.37216 18.49260 497 ft 0 kts 201°
2026-05-07 12:52 54.37211 18.49257 497 ft 6 kts 201°
2026-05-07 12:52 54.37165 18.49186 488 ft 10 kts 230°
2026-05-07 12:52 54.37144 18.49079 485 ft 10 kts 280°
2026-05-07 12:52 54.37179 18.48942 482 ft 16 kts 292°
2026-05-07 12:53 54.37282 18.48538 474 ft 73 kts 292°
2026-05-07 12:53 54.37574 18.47366 463 ft 137 kts 292°
2026-05-07 12:53 54.38007 18.45678 762 ft 160 kts 300°
2026-05-07 12:53 54.38453 18.43941 1603 ft 159 kts 300°
2026-05-07 12:54 54.38894 18.42160 2210 ft 169 kts 298°
2026-05-07 12:54 54.39386 18.40171 2630 ft 192 kts 297°
2026-05-07 12:54 54.39940 18.37919 3035 ft 217 kts 297°
2026-05-07 12:54 54.40557 18.35397 3515 ft 242 kts 297°
2026-05-07 12:55 54.41235 18.32618 4137 ft 260 kts 296°
2026-05-07 12:55 54.41940 18.29724 5075 ft 265 kts 296°
2026-05-07 12:55 54.42827 18.26961 6065 ft 265 kts 313°
2026-05-07 12:55 54.44284 18.25013 6976 ft 268 kts 328°
2026-05-07 12:56 54.45882 18.23314 7891 ft 272 kts 328°
2026-05-07 12:56 54.47511 18.21604 8789 ft 277 kts 328°
2026-05-07 12:56 54.49169 18.19866 9704 ft 281 kts 327°
2026-05-07 12:56 54.50840 18.18107 10391 ft 293 kts 327°
2026-05-07 12:57 54.52648 18.16198 10708 ft 317 kts 327°
2026-05-07 12:57 54.54590 18.14135 11058 ft 337 kts 327°
2026-05-07 12:57 54.56613 18.11985 11721 ft 345 kts 326°
2026-05-07 12:57 54.58671 18.09794 12481 ft 350 kts 326°
2026-05-07 12:58 54.60680 18.07388 13226 ft 354 kts 321°
2026-05-07 12:58 54.62659 18.04816 13982 ft 358 kts 320°
2026-05-07 12:58 54.64656 18.02207 14643 ft 362 kts 320°
2026-05-07 12:58 54.66677 17.99560 15307 ft 367 kts 320°
2026-05-07 12:59 54.68722 17.96880 15976 ft 371 kts 320°
2026-05-07 12:59 54.70789 17.94164 16639 ft 375 kts 320°
2026-05-07 12:59 54.72879 17.91419 17309 ft 379 kts 320°
2026-05-07 12:59 54.74986 17.88649 17974 ft 382 kts 320°
2026-05-07 13:00 54.77114 17.85849 18604 ft 386 kts 320°
2026-05-07 13:00 54.79296 17.83113 19160 ft 390 kts 326°
2026-05-07 13:00 54.81726 17.80932 19728 ft 396 kts 333°
2026-05-07 13:00 54.84247 17.78969 20294 ft 398 kts 333°
2026-05-07 13:01 54.86779 17.76990 20845 ft 401 kts 333°
2026-05-07 13:01 54.89338 17.74981 21384 ft 405 kts 333°
2026-05-07 13:01 54.91910 17.72951 21913 ft 408 kts 333°
2026-05-07 13:01 54.94499 17.70899 22435 ft 411 kts 333°
2026-05-07 13:02 54.97110 17.68827 22950 ft 414 kts 333°
2026-05-07 13:02 54.99740 17.66758 23464 ft 417 kts 333°
2026-05-07 13:02 55.02404 17.64708 23915 ft 420 kts 333°
2026-05-07 13:02 55.05089 17.62674 24345 ft 422 kts 333°
2026-05-07 13:03 55.07794 17.60633 24757 ft 425 kts 333°
2026-05-07 13:03 55.10516 17.58573 25170 ft 427 kts 333°
2026-05-07 13:03 55.13247 17.56496 25573 ft 430 kts 333°
2026-05-07 13:03 55.15995 17.54389 25962 ft 432 kts 332°
2026-05-07 13:04 55.18754 17.52257 26360 ft 435 kts 332°
2026-05-07 13:04 55.21529 17.50105 26747 ft 438 kts 332°
2026-05-07 13:04 55.24318 17.47922 27120 ft 440 kts 332°
2026-05-07 13:04 55.27115 17.45705 27497 ft 443 kts 332°
2026-05-07 13:05 55.29929 17.43454 27866 ft 445 kts 331°
2026-05-07 13:05 55.32752 17.41187 28225 ft 448 kts 331°
2026-05-07 13:05 55.35596 17.38901 28575 ft 451 kts 331°
2026-05-07 13:05 55.38455 17.36607 28909 ft 453 kts 331°
2026-05-07 13:06 55.41335 17.34302 29236 ft 456 kts 331°
2026-05-07 13:06 55.44188 17.32018 29559 ft 458 kts 331°
2026-05-07 13:06 55.47095 17.29688 29878 ft 461 kts 331°
2026-05-07 13:06 55.50020 17.27338 30182 ft 463 kts 331°
2026-05-07 13:07 55.52956 17.24970 30469 ft 464 kts 331°
2026-05-07 13:07 55.55892 17.22602 30863 ft 463 kts 331°
2026-05-07 13:07 55.58820 17.20239 31248 ft 462 kts 331°
2026-05-07 13:07 55.61742 17.17878 31634 ft 461 kts 331°
2026-05-07 13:08 55.64653 17.15500 32029 ft 460 kts 330°
2026-05-07 13:08 55.67530 17.13037 32422 ft 458 kts 329°
2026-05-07 13:08 55.70372 17.10503 32826 ft 457 kts 328°
2026-05-07 13:08 55.73196 17.07918 33205 ft 456 kts 328°
2026-05-07 13:09 55.75735 17.05573 33565 ft 455 kts 328°
2026-05-07 13:09 55.78543 17.02985 33956 ft 454 kts 328°
2026-05-07 13:09 55.81350 17.00418 34303 ft 454 kts 328°
2026-05-07 13:09 55.84162 16.97868 34619 ft 453 kts 329°
2026-05-07 13:10 55.86976 16.95324 34927 ft 453 kts 329°
2026-05-07 13:10 55.89790 16.92783 35218 ft 453 kts 329°
2026-05-07 13:10 55.92597 16.90242 35495 ft 453 kts 329°
2026-05-07 13:10 55.95403 16.87691 35786 ft 453 kts 329°
2026-05-07 13:11 55.98207 16.85130 36048 ft 453 kts 329°
2026-05-07 13:11 56.00972 16.82603 36315 ft 453 kts 329°
2026-05-07 13:11 56.03777 16.80039 36559 ft 453 kts 329°
2026-05-07 13:11 56.06584 16.77470 36808 ft 453 kts 329°
2026-05-07 13:12 56.09390 16.74900 37047 ft 453 kts 329°
2026-05-07 13:12 56.12234 16.72294 37284 ft 453 kts 329°
2026-05-07 13:12 56.15004 16.69750 37524 ft 453 kts 329°
2026-05-07 13:12 56.17847 16.67133 37749 ft 454 kts 329°
2026-05-07 13:13 56.20617 16.64574 37972 ft 454 kts 328°
2026-05-07 13:13 56.23463 16.61933 38094 ft 455 kts 328°
2026-05-07 13:13 56.29048 16.56738 38098 ft 455 kts 328°
2026-05-07 13:14 56.34669 16.51515 38093 ft 454 kts 328°
2026-05-07 13:14 56.40279 16.46277 38085 ft 454 kts 328°
2026-05-07 13:15 56.45881 16.41031 38102 ft 453 kts 328°
2026-05-07 13:15 56.51476 16.35775 38099 ft 453 kts 328°
2026-05-07 13:16 56.57071 16.30493 38100 ft 453 kts 328°
2026-05-07 13:16 56.62655 16.25197 38096 ft 453 kts 328°
2026-05-07 13:17 56.68239 16.19891 38101 ft 453 kts 328°
2026-05-07 13:17 56.73822 16.14586 38111 ft 452 kts 328°
2026-05-07 13:18 56.79393 16.09260 38106 ft 452 kts 328°
2026-05-07 13:18 56.84951 16.03924 38108 ft 451 kts 328°
2026-05-07 13:19 56.90508 15.98595 38100 ft 451 kts 328°
2026-05-07 13:19 56.96055 15.93242 38097 ft 450 kts 328°
2026-05-07 13:20 57.01589 15.87868 38089 ft 450 kts 328°
2026-05-07 13:20 57.07079 15.82524 38096 ft 449 kts 328°
2026-05-07 13:21 57.12597 15.77141 38092 ft 449 kts 328°
2026-05-07 13:21 57.18104 15.71747 38084 ft 448 kts 328°
2026-05-07 13:22 57.23608 15.66351 38084 ft 448 kts 328°
2026-05-07 13:22 57.29102 15.60939 38084 ft 447 kts 328°
2026-05-07 13:23 57.34586 15.55511 38085 ft 447 kts 328°
2026-05-07 13:23 57.40060 15.50075 38084 ft 446 kts 328°
2026-05-07 13:24 57.45527 15.44627 38081 ft 446 kts 328°
2026-05-07 13:24 57.50985 15.39183 38080 ft 445 kts 328°
2026-05-07 13:25 57.56439 15.33724 38080 ft 445 kts 328°
2026-05-07 13:25 57.61846 15.28295 38080 ft 444 kts 328°
2026-05-07 13:26 57.67275 15.22814 38081 ft 443 kts 328°
2026-05-07 13:26 57.72694 15.17313 38085 ft 443 kts 328°
2026-05-07 13:27 57.78105 15.11811 38074 ft 442 kts 328°
2026-05-07 13:27 57.83508 15.06307 38085 ft 442 kts 328°
2026-05-07 13:28 57.88902 15.00794 38084 ft 441 kts 328°
2026-05-07 13:28 57.94286 14.95268 38094 ft 440 kts 327°
2026-05-07 13:29 57.99657 14.89743 38096 ft 440 kts 327°
2026-05-07 13:29 58.05015 14.84187 38096 ft 439 kts 327°
2026-05-07 13:30 58.10362 14.78627 38100 ft 439 kts 327°
2026-05-07 13:30 58.15708 14.73069 38107 ft 438 kts 327°
2026-05-07 13:31 58.21044 14.67506 38107 ft 437 kts 327°
2026-05-07 13:31 58.26367 14.61924 38112 ft 437 kts 327°
2026-05-07 13:32 58.31685 14.56313 38109 ft 437 kts 327°
2026-05-07 13:32 58.36997 14.50709 38110 ft 436 kts 327°
2026-05-07 13:33 58.42308 14.45100 38110 ft 436 kts 327°
2026-05-07 13:33 58.47610 14.39463 38110 ft 436 kts 326°
2026-05-07 13:34 58.55548 14.30969 38107 ft 436 kts 326°
2026-05-07 13:35 58.60839 14.25298 38109 ft 436 kts 326°
2026-05-07 13:35 58.66121 14.19604 38113 ft 435 kts 326°
2026-05-07 13:36 58.71370 14.13940 38118 ft 435 kts 326°
2026-05-07 13:36 58.76646 14.08230 38115 ft 435 kts 326°
2026-05-07 13:37 58.81917 14.02494 38120 ft 435 kts 326°
2026-05-07 13:37 58.87189 13.96744 38120 ft 435 kts 326°
2026-05-07 13:38 58.92452 13.90973 38126 ft 435 kts 326°
2026-05-07 13:38 58.97720 13.85189 38124 ft 435 kts 326°
2026-05-07 13:39 59.02980 13.79405 37932 ft 434 kts 326°
2026-05-07 13:39 59.04750 13.77452 37506 ft 433 kts 326°
2026-05-07 13:39 59.07361 13.74562 36882 ft 430 kts 326°
2026-05-07 13:39 59.09953 13.71687 36287 ft 428 kts 325°
2026-05-07 13:40 59.12527 13.68829 35714 ft 425 kts 325°
2026-05-07 13:40 59.15083 13.65994 35143 ft 421 kts 325°
2026-05-07 13:40 59.17621 13.63171 34576 ft 418 kts 325°
2026-05-07 13:40 59.20098 13.60400 34005 ft 415 kts 325°
2026-05-07 13:41 59.22594 13.57600 33274 ft 412 kts 325°
2026-05-07 13:41 59.25076 13.54806 32472 ft 412 kts 325°
2026-05-07 13:41 59.27559 13.52009 31641 ft 412 kts 325°
2026-05-07 13:41 59.30043 13.49211 30804 ft 412 kts 325°
2026-05-07 13:42 59.32533 13.46405 29954 ft 413 kts 325°
2026-05-07 13:42 59.35007 13.43625 29242 ft 407 kts 325°
2026-05-07 13:42 59.37451 13.40875 28522 ft 403 kts 325°
2026-05-07 13:42 59.39865 13.38145 27804 ft 399 kts 325°
2026-05-07 13:43 59.42255 13.35437 27114 ft 395 kts 325°
2026-05-07 13:43 59.44623 13.32746 26444 ft 392 kts 324°
2026-05-07 13:43 59.46980 13.30092 25783 ft 389 kts 325°
2026-05-07 13:43 59.49329 13.27480 25131 ft 386 kts 325°
2026-05-07 13:44 59.51663 13.24903 24492 ft 383 kts 325°
2026-05-07 13:44 59.53982 13.22341 23869 ft 381 kts 325°
2026-05-07 13:44 59.56285 13.19788 23176 ft 379 kts 325°
2026-05-07 13:44 59.58570 13.17245 22498 ft 376 kts 325°
2026-05-07 13:45 59.60837 13.14708 21840 ft 373 kts 325°
2026-05-07 13:45 59.63084 13.12189 21214 ft 370 kts 325°
2026-05-07 13:45 59.65314 13.09683 20616 ft 367 kts 325°
2026-05-07 13:45 59.67527 13.07189 20014 ft 365 kts 325°
2026-05-07 13:46 59.69726 13.04707 19430 ft 363 kts 326°
2026-05-07 13:46 59.71914 13.02237 18881 ft 361 kts 326°
2026-05-07 13:46 59.74056 12.99818 18551 ft 354 kts 326°
2026-05-07 13:46 59.76155 12.97454 18428 ft 340 kts 326°
2026-05-07 13:47 59.78177 12.95174 18296 ft 328 kts 325°
2026-05-07 13:47 59.80123 12.92971 18080 ft 318 kts 325°
2026-05-07 13:47 59.82049 12.90773 17523 ft 320 kts 325°
2026-05-07 13:47 59.83975 12.88564 16975 ft 318 kts 325°
2026-05-07 13:48 59.85865 12.86404 16450 ft 308 kts 326°
2026-05-07 13:48 59.87699 12.84317 15921 ft 299 kts 326°
2026-05-07 13:48 59.89486 12.82276 15399 ft 294 kts 326°
2026-05-07 13:48 59.91253 12.80254 14894 ft 291 kts 326°
2026-05-07 13:49 59.93003 12.78250 14382 ft 289 kts 326°
2026-05-07 13:49 59.94726 12.76169 13909 ft 291 kts 321°
2026-05-07 13:49 59.96270 12.73542 13358 ft 293 kts 311°
2026-05-07 13:49 59.97561 12.70391 12811 ft 294 kts 302°
2026-05-07 13:50 59.98558 12.66818 12277 ft 296 kts 293°
2026-05-07 13:50 59.99221 12.62926 11748 ft 298 kts 283°
2026-05-07 13:50 59.99596 12.58840 11224 ft 300 kts 279°
2026-05-07 13:50 59.99944 12.54754 10697 ft 294 kts 279°
2026-05-07 13:51 60.00282 12.50802 10220 ft 283 kts 279°
2026-05-07 13:51 60.00607 12.47003 10071 ft 275 kts 279°
2026-05-07 13:51 60.00959 12.43248 10075 ft 275 kts 285°
2026-05-07 13:51 60.01664 12.39707 10075 ft 275 kts 299°
2026-05-07 13:52 60.02788 12.36611 10080 ft 277 kts 313°
2026-05-07 13:52 60.04183 12.34063 10076 ft 268 kts 317°
2026-05-07 13:52 60.05571 12.31602 10076 ft 266 kts 317°
2026-05-07 13:52 60.06945 12.29139 10076 ft 265 kts 317°
2026-05-07 13:53 60.08319 12.26672 10079 ft 265 kts 317°
2026-05-07 13:53 60.09696 12.24213 10079 ft 265 kts 317°
2026-05-07 13:53 60.11076 12.21758 10079 ft 265 kts 313°
2026-05-07 13:53 60.12237 12.18900 10076 ft 264 kts 307°
2026-05-07 13:54 60.13363 12.15987 10078 ft 264 kts 307°
2026-05-07 13:54 60.14483 12.13082 9886 ft 262 kts 307°
2026-05-07 13:54 60.15597 12.10192 9573 ft 259 kts 307°
2026-05-07 13:54 60.16675 12.07389 9435 ft 249 kts 307°
2026-05-07 13:55 60.17717 12.04679 9199 ft 243 kts 307°
2026-05-07 13:55 60.18755 12.01981 8808 ft 245 kts 307°
2026-05-07 13:55 60.19807 11.99240 8326 ft 248 kts 307°
2026-05-07 13:55 60.20846 11.96530 7671 ft 248 kts 307°
2026-05-07 13:56 60.21904 11.93774 7029 ft 249 kts 307°
2026-05-07 13:56 60.22966 11.91000 6394 ft 251 kts 307°
2026-05-07 13:56 60.24029 11.88215 5724 ft 251 kts 307°
2026-05-07 13:56 60.25091 11.85428 5139 ft 248 kts 307°
2026-05-07 13:57 60.26104 11.82771 5003 ft 231 kts 307°
2026-05-07 13:57 60.27080 11.80214 5002 ft 230 kts 307°
2026-05-07 13:57 60.28058 11.77648 5015 ft 231 kts 307°
2026-05-07 13:57 60.29033 11.75084 4998 ft 230 kts 307°
2026-05-07 13:58 60.30005 11.72521 5000 ft 230 kts 307°
2026-05-07 13:58 60.30977 11.69957 5004 ft 230 kts 307°
2026-05-07 13:58 60.31947 11.67389 5007 ft 230 kts 306°
2026-05-07 13:58 60.32915 11.64819 5005 ft 230 kts 307°
2026-05-07 13:59 60.33883 11.62247 5003 ft 230 kts 306°
2026-05-07 13:59 60.34851 11.59678 5005 ft 230 kts 307°
2026-05-07 13:59 60.35820 11.57107 5003 ft 230 kts 307°
2026-05-07 13:59 60.36785 11.54533 5003 ft 230 kts 306°
2026-05-07 14:00 60.37751 11.51954 5008 ft 230 kts 306°
2026-05-07 14:00 60.38717 11.49381 5008 ft 230 kts 306°
2026-05-07 14:00 60.39683 11.46807 5004 ft 229 kts 307°
2026-05-07 14:00 60.40650 11.44235 5005 ft 230 kts 306°
2026-05-07 14:01 60.41435 11.41464 5012 ft 224 kts 289°
2026-05-07 14:01 60.41723 11.38430 5009 ft 219 kts 271°
2026-05-07 14:01 60.41539 11.35408 4750 ft 217 kts 256°
2026-05-07 14:01 60.41167 11.32491 4416 ft 216 kts 256°
2026-05-07 14:02 60.40802 11.29591 4283 ft 210 kts 255°
2026-05-07 14:02 60.40377 11.26805 4095 ft 205 kts 244°
2026-05-07 14:02 60.39542 11.24469 4005 ft 207 kts 225°
2026-05-07 14:02 60.38341 11.22893 3854 ft 208 kts 202°
2026-05-07 14:03 60.36946 11.22035 3562 ft 212 kts 197°
2026-05-07 14:03 60.35540 11.21216 3490 ft 208 kts 197°
2026-05-07 14:03 60.34142 11.20402 3507 ft 209 kts 197°
2026-05-07 14:03 60.32741 11.19584 3342 ft 211 kts 197°
2026-05-07 14:04 60.31316 11.18753 3076 ft 211 kts 197°
2026-05-07 14:04 60.29948 11.17957 2778 ft 198 kts 197°
2026-05-07 14:04 60.28656 11.17204 2504 ft 189 kts 197°
2026-05-07 14:04 60.27419 11.16485 2282 ft 182 kts 197°
2026-05-07 14:05 60.26252 11.15807 2028 ft 168 kts 197°
2026-05-07 14:05 60.25193 11.15192 1790 ft 151 kts 197°
2026-05-07 14:05 60.24221 11.14627 1582 ft 142 kts 197°
2026-05-07 14:05 60.23286 11.14085 1385 ft 138 kts 197°
2026-05-07 14:06 60.22377 11.13558 1199 ft 135 kts 197°
2026-05-07 14:06 60.21484 11.13041 1012 ft 132 kts 197°
2026-05-07 14:06 60.20604 11.12526 831 ft 131 kts 197°
2026-05-07 14:06 60.19736 11.12020 699 ft 129 kts 196°
2026-05-07 14:07 60.18873 11.11522 685 ft 113 kts 195°
2026-05-07 14:07 60.18346 11.11222 684 ft 56 kts 195°
2026-05-07 14:07 60.18100 11.11014 683 ft 32 kts 214°
2026-05-07 14:07 60.18040 11.10785 681 ft 11 kts 282°
2026-05-07 14:08 60.18052 11.10727 681 ft 0 kts 293°
2026-05-07 14:08 60.18052 11.10723 681 ft 1 kts 282°
2026-05-07 14:08 60.18067 11.10584 681 ft 13 kts 304°
2026-05-07 14:08 60.18140 11.10538 681 ft 11 kts 17°
2026-05-07 14:09 60.18207 11.10578 681 ft 9 kts 14°
2026-05-07 14:09 60.18267 11.10609 680 ft 8 kts 15°
2026-05-07 14:09 60.18318 11.10639 682 ft 7 kts 16°
2026-05-07 14:09 60.18363 11.10665 682 ft 6 kts 15°
2026-05-07 14:10 60.18401 11.10686 682 ft 5 kts 15°
2026-05-07 14:10 60.18444 11.10711 682 ft 13 kts 15°
2026-05-07 14:10 60.18561 11.10781 683 ft 18 kts 16°
2026-05-07 14:10 60.18673 11.10844 683 ft 14 kts 16°
2026-05-07 14:11 60.18762 11.10896 684 ft 13 kts 16°
2026-05-07 14:11 60.18841 11.10943 684 ft 11 kts 16°
2026-05-07 14:11 60.18912 11.10984 684 ft 10 kts 16°
2026-05-07 14:11 60.18975 11.11021 683 ft 9 kts 17°
2026-05-07 14:12 60.19040 11.11058 685 ft 13 kts 15°
2026-05-07 14:12 60.19125 11.11106 685 ft 12 kts 15°
2026-05-07 14:12 60.19202 11.11151 686 ft 11 kts 16°
2026-05-07 14:12 60.19287 11.11200 686 ft 13 kts 16°
2026-05-07 14:13 60.19368 11.11246 683 ft 11 kts 16°
2026-05-07 14:13 60.19441 11.11287 687 ft 11 kts 16°
2026-05-07 14:13 60.19508 11.11202 687 ft 9 kts 271°
2026-05-07 14:13 60.19516 11.11082 686 ft 8 kts 285°
2026-05-07 14:14 60.19536 11.10946 686 ft 13 kts 287°
2026-05-07 14:14 60.19562 11.10770 683 ft 13 kts 286°
2026-05-07 14:14 60.19587 11.10585 682 ft 14 kts 286°
2026-05-07 14:14 60.19612 11.10417 681 ft 12 kts 286°
2026-05-07 14:15 60.19630 11.10284 683 ft 7 kts 284°
2026-05-07 14:15 60.19638 11.10228 679 ft 1 kts 285°
2026-05-07 14:15 60.19638 11.10226 679 ft 0 kts 285°